AirNav   Air Wisconsin pilot careers
 
 602 users online  

N71 Donegal Springs Airpark
Mount Joy/Marietta, Pennsylvania, USA

GOING TO MOUNT JOY/MARIETTA?


FAA INFORMATION EFFECTIVE 06 DECEMBER 2018

Location

FAA Identifier: N71
Lat/Long: 40-05-31.9440N / 076-34-27.6790W
40-05.532400N / 076-34.461317W
40.0922067 / -76.5743553
(estimated)
Elevation: 458 ft. / 140 m (estimated)
Variation: 09W (1975)
From city: 3 miles SW of central business district of the associated city
Time zone: UTC -5 (UTC -4 during Daylight Saving Time)
Zip code: 17547

Airport Operations

Airport use: Open to the public
Activation date: 05/1947
Control tower: no
ARTCC: NEW YORK CENTER
FSS: WILLIAMSPORT FLIGHT SERVICE STATION
NOTAMs facility: IPT (NOTAM-D service available)
Attendance: MON-FRI 0800-1700, ALL SAT UNATTND, ALL SUN UNATTND
Pattern altitude: 1258 ft. MSL
Wind indicator: yes
Segmented circle: no
Lights: ACTVT MIRL RY 10/28 - CTAF.
Beacon: white-green (lighted land airport)
ACTV BCN ON CTAF

Airport Communications

CTAF/UNICOM: 122.8
HARRISBURG APPROACH: 126.45
HARRISBURG DEPARTURE: 126.45
CLEARANCE DELIVERY: 127.05
WX ASOS at MDT (11 nm NW): PHONE 717-944-1372
WX ASOS at LNS (13 nm E): 125.675 (717-569-8860)
WX ASOS at CXY (15 nm NW): PHONE 717-770-0880
WX ASOS at THV (17 nm SW): 119.275 (717-792-5529)
WX AWOS-2 at 9D4 (19 nm NE): 118.45 (717-866-2906)

Nearby radio navigation aids

VOR radial/distance  VOR name  Freq  Var
LRPr272/13.1LANCASTER VOR/DME117.3009W
HARr129/26.0HARRISBURG VORTAC112.5010W
RAVr189/27.7RAVINE VORTAC114.6011W

 
NDB name  Hdg/Dist  Freq  Var  ID
BELLGROVE193/20.632810WBZJ -... --.. .---

Airport Services

Fuel available: 100LL
Parking: tiedowns
Airframe service: MAJOR
Powerplant service: MAJOR
Bottled oxygen: NONE
Bulk oxygen: NONE

Runway Information

Runway 10/28

Dimensions: 3250 x 50 ft. / 991 x 15 m
Surface: asphalt, in fair condition
Weight bearing capacity: 
Single wheel: 12.5
Runway edge lights: medium intensity
RUNWAY 10  RUNWAY 28
Latitude: 40-05.508200N40-05.557200N
Longitude: 076-34.809183W076-34.115083W
Elevation: 458.0 ft.400.0 ft.
Traffic pattern: leftleft
Runway heading: 094 magnetic, 085 true274 magnetic, 265 true
Displaced threshold: 390 ft.
RW 10 DSPLCD THLD BAR 300' FROM RW END, DSPLCD THLD LGTS 390' FROM RW END.
no
Markings: nonprecision, in good conditionnonprecision, in good condition
Touchdown point: yes, no lightsyes, no lights

Airport Ownership and Management from official FAA records

Ownership: Privately-owned
Owner: N71, INC.
46825 SHELTON DRIVE
LEXINGTON PARK, MD 20653
Phone 301-904-0299
Manager: BEN TRAVIS
186 AIRPORT RD
MARIETTA, PA 17547
Phone 717-928-4360

Airport Operational Statistics

Aircraft based on the field: 14
Single engine airplanes: 13
Multi engine airplanes: 1
    
Aircraft operations: avg 33/day *
50% local general aviation
42% transient general aviation
8% military
* for 12-month period ending 12 December 2017

Additional Remarks

A57-10 RY 10 APCH SLOPE RATIO 20:1 TO DSPLCD THLD LIGHTS AT 300 FT FM RY END.
FOR CD CTC HARRISBURG APCH AT 800-932-0712.
A58-10 RWY 10; +15 FT ROAD 16 FT FROM RWY END.
A52-10 RY 10 HAS +30 FT HOUSE 190 FT FM DSPLCD THLD, 206 FT RIGHT, APCH RATIO 6:1 BASED ON DSPLCD THLD.

Instrument Procedures

NOTE: All procedures below are presented as PDF files. If you need a reader for these files, you should download the free Adobe Reader.

NOT FOR NAVIGATION. Please procure official charts for flight.
FAA instrument procedures published for use from 6 December 2018 at 0901Z to 3 January 2019 at 0900Z.

 
IAPs - Instrument Approach Procedures
RNAV (GPS) RWY 28   download (160KB)
VOR RWY 28   download (189KB)
NOTE: Special Take-Off Minimums/Departure Procedures apply   download (149KB)

Other nearby airports with instrument procedures:

KMDT - Harrisburg International Airport (11 nm NW)
58N - Reigle Field Airport (12 nm N)
KLNS - Lancaster Airport (13 nm E)
KCXY - Capital City Airport (15 nm NW)
08N - Keller Brothers Airport (16 nm NE)
KTHV - York Airport (17 nm SW)
9D4 - Deck Airport (19 nm NE)
 
Loc | Ops | Rwys | IFR | FBO | Links
Com | Nav | Svcs | Stats | Notes


 
Area around N71 (Donegal Springs Airpark)
 
Road maps at: MapQuest Bing Google
 
Aerial photo
WARNING: Photo may not be current or correct
Aerial photo of N71 (Donegal Springs Airpark)
Looking east.

Do you have a better or more recent aerial photo of Donegal Springs Airpark that you would like to share? If so, please send us your photo.

 
Sectional chart

 
Airport distance calculator
Flying to Donegal Springs Airpark? Find the distance to fly.

From to N71

Sunrise and sunset
Times for 16-Dec-2018
 Local
(UTC-5)
 Zulu
(UTC)
Morning civil twilight06:5211:52
Sunrise07:2312:23
Sunset16:4121:41
Evening civil twilight17:1122:11

Current date and time
Zulu (UTC)  16-Dec-2018 05:03:23
Local (UTC-5)  16-Dec-2018 00:03:23
 
METAR
KMDT 
11nm NW 
160456Z 00000KT 3SM RA BR BKN019 OVC026 07/05 A2999 RMK AO2 SLP157 P0021 T00670050 401110050 $
KLNS 
13nm E 
160453Z AUTO 07014KT 4SM RA BR FEW018 OVC026 08/06 A2995 RMK AO2 SLP143 P0008 T00780056 401170067
KCXY 
15nm NW 
160456Z AUTO 36004KT 3SM RA BR SCT014 OVC020 07/05 A2999 RMK AO2 SLP159 P0023 T00670050 401170061
KTHV 
18nm SW 
160453Z AUTO 03008KT 2 1/2SM -RA BR BKN012 OVC016 06/05 A2996 RMK AO2 SLP150 P0018 T00560050 401060044
KMUI 
19nm N 
160456Z AUTO 04008G19KT 4SM RA BKN006 OVC028 06/04 A2998 RMK AO2 SLP158 P0000 T00630038 401140054 $
TAF
KMDT 
11nm NW 
160314Z 1603/1624 10006KT P6SM -RA OVC020 FM160500 02010KT 4SM -RA BR OVC015 FM161300 02008KT 1 1/2SM -RA BR OVC007
KLNS 
13nm E 
160317Z 1603/1624 07008G16KT P6SM -RA OVC025 FM160700 05008G15KT 2SM -RA BR OVC015 FM161300 04008G15KT 1 1/2SM -RA BR OVC007
NOTAMs
Click for the latest NOTAMs
NOTAMs are issued by the DoD/FAA and will open in a separate window not controlled by AirNav.

 

 
 

FBO, Fuel Providers, and Aircraft Ground Support

  
 Business Name 
 
 Contact 
 
 Services / Description 
 
Fuel Prices
 
Comments
  
N71, Inc. 301-904-0299
no information available

If you are affiliated with N71, Inc. and would like to show here your services, contact info, web link, logo, and more, click here
100LL
SS $5.14 
 Updated 24-Oct-2018
 
   1 read write
SS=Self service
Update Fuel Prices
 

Would you like to see your business listed on this page?

 If your business provides an interesting product or service to pilots, flight crews, aircraft, or users of the Donegal Springs Airpark, you should consider listing it here.  To start the listing process, click on the button below
 
Add a business
 

Other Pages about Donegal Springs Airpark

Update a link
 
Copyright © AirNav, LLC. All rights reserved. Privacy Policy  Contact